• In Norway
  • List of Countries
  • For 7 days
  • Water Temperature
  • Satellite Maps
  • Weather Map
  • Weather Widgets
  • user-avatar
    Login

    Hourly Weather Romancevskiy

    Today, 16 November, Friday

    Time Temperature Precipitation Wind Pressure Humidity
    00:00 -4°C° 0 mm 2 mps 760 mmHg 33%
    01:00 -4°C° 0 mm 2 mps 760 mmHg 32%
    02:00 -4°C° 0 mm 2 mps 760 mmHg 30%
    03:00 -5°C° 0 mm 2 mps 760 mmHg 29%
    04:00 -5°C° 0 mm 2 mps 761 mmHg 28%
    05:00 -5°C° 0 mm 2 mps 761 mmHg 28%
    06:00 -5°C° 0 mm 2 mps 761 mmHg 27%
    07:00 -5°C° 0 mm 2 mps 761 mmHg 27%
    08:00 -5°C° 0 mm 2 mps 762 mmHg 27%
    09:00 -5°C° 0 mm 2 mps 762 mmHg 26%
    10:00 -4°C° 0 mm 2 mps 762 mmHg 24%
    11:00 -3°C° 0 mm 2 mps 762 mmHg 22%
    12:00 -2°C° 0 mm 2 mps 762 mmHg 20%
    13:00 -2°C° 0 mm 2 mps 762 mmHg 21%
    14:00 +1°C° 0 mm 1 mps 762 mmHg 21%
    15:00 +1°C° 0 mm 1 mps 762 mmHg 21%
    16:00 0°C° 0 mm 1 mps 762 mmHg 22%
    17:00 -1°C° 0 mm 1 mps 762 mmHg 22%
    18:00 -1°C° 0 mm 1 mps 762 mmHg 23%
    19:00 -1°C° 0 mm 1 mps 762 mmHg 22%
    20:00 -1°C° 0 mm 1 mps 762 mmHg 22%
    21:00 -1°C° 0 mm 1 mps 762 mmHg 22%
    22:00 -2°C° 0 mm 1 mps 762 mmHg 21%
    23:00 -2°C° 0 mm 1 mps 762 mmHg 21%

    Tomorrow, 17 November, Saturday

    Time Temperature Precipitation Wind Pressure Humidity
    00:00 -2°C° 0 mm 1 mps 762 mmHg 20%
    01:00 -2°C° 0 mm 1 mps 761 mmHg 20%
    02:00 -3°C° 0 mm 0 mps 761 mmHg 20%
    03:00 -3°C° 0 mm 0 mps 761 mmHg 19%
    04:00 -2°C° 0 mm 1 mps 761 mmHg 19%
    05:00 -2°C° 0 mm 1 mps 760 mmHg 19%
    06:00 -2°C° 0 mm 1 mps 760 mmHg 19%
    07:00 -2°C° 0 mm 1 mps 760 mmHg 19%
    08:00 -2°C° 0 mm 1 mps 760 mmHg 19%
    09:00 -4°C° 0 mm 2 mps 759 mmHg 19%
    10:00 -3°C° 0 mm 2 mps 759 mmHg 18%
    11:00 -2°C° 0 mm 2 mps 758 mmHg 18%
    12:00 -1°C° 0 mm 3 mps 758 mmHg 17%
    13:00 0°C° 0 mm 3 mps 757 mmHg 18%
    14:00 0°C° 0 mm 3 mps 756 mmHg 19%
    15:00 0°C° 0 mm 3 mps 756 mmHg 20%
    16:00 -1°C° 0 mm 3 mps 755 mmHg 22%
    17:00 -2°C° 0 mm 4 mps 754 mmHg 23%
    18:00 -3°C° 0 mm 4 mps 754 mmHg 24%
    19:00 -3°C° 0 mm 4 mps 753 mmHg 25%
    20:00 -3°C° 0 mm 4 mps 752 mmHg 25%
    21:00 -3°C° 0 mm 4 mps 751 mmHg 26%
    22:00 -3°C° 0 mm 4 mps 751 mmHg 27%
    23:00 -4°C° 0 mm 5 mps 750 mmHg 29%

    Day after tomorrow, 18 November, Sunday

    Time Temperature Precipitation Wind Pressure Humidity
    00:00 -4°C° 0 mm 5 mps 749 mmHg 30%
    01:00 -4°C° 0 mm 5 mps 749 mmHg 35%
    02:00 -4°C° 0 mm 5 mps 748 mmHg 40%
    03:00 -4°C° 0 mm 5 mps 747 mmHg 45%
    04:00 -4°C° 0.1 mm 5 mps 746 mmHg 50%
    05:00 -3°C° 0.1 mm 4 mps 746 mmHg 55%
    06:00 -3°C° 0.1 mm 4 mps 745 mmHg 59%
    07:00 -3°C° 0.1 mm 4 mps 745 mmHg 60%
    08:00 -3°C° 0.1 mm 4 mps 744 mmHg 61%
    09:00 -3°C° 0.1 mm 4 mps 744 mmHg 62%
    10:00 -3°C° 0 mm 4 mps 744 mmHg 65%
    11:00 -3°C° 0 mm 4 mps 744 mmHg 68%
    12:00 -3°C° 0 mm 4 mps 744 mmHg 71%
    13:00 -2°C° 0 mm 3 mps 744 mmHg 72%
    14:00 -1°C° 0 mm 3 mps 744 mmHg 72%
    15:00 -1°C° 0 mm 3 mps 744 mmHg 73%
    16:00 -2°C° 0 mm 3 mps 744 mmHg 75%
    17:00 -2°C° 0 mm 2 mps 744 mmHg 77%
    18:00 -2°C° 0 mm 2 mps 744 mmHg 80%
    19:00 -2°C° 0 mm 2 mps 744 mmHg 81%
    20:00 -2°C° 0 mm 2 mps 744 mmHg 83%
    21:00 -3°C° 0 mm 2 mps 745 mmHg 84%
    22:00 -1°C° 0 mm 1 mps 745 mmHg 84%
    23:00 -1°C° 0 mm 1 mps 745 mmHg 83%

    19 November, Monday

    Time Temperature Precipitation Wind Pressure Humidity
    00:00 -1°C° 0 mm 1 mps 746 mmHg 83%
    01:00 -1°C° 0.1 mm 1 mps 746 mmHg 82%
    02:00 -1°C° 0.1 mm 1 mps 746 mmHg 82%
    03:00 -1°C° 0.1 mm 1 mps 747 mmHg 81%
    04:00 -1°C° 0 mm 1 mps 747 mmHg 79%
    05:00 -1°C° 0 mm 1 mps 747 mmHg 76%
    06:00 -3°C° 0 mm 2 mps 747 mmHg 73%
    07:00 -3°C° 0 mm 2 mps 748 mmHg 69%
    08:00 -3°C° 0 mm 2 mps 749 mmHg 65%
    09:00 -3°C° 0 mm 2 mps 749 mmHg 60%
    10:00 -3°C° 0 mm 2 mps 750 mmHg 54%
    11:00 -2°C° 0 mm 2 mps 750 mmHg 49%
    12:00 -2°C° 0 mm 2 mps 751 mmHg 43%
    13:00 -2°C° 0 mm 2 mps 751 mmHg 44%
    14:00 -2°C° 0 mm 2 mps 752 mmHg 45%
    15:00 -2°C° 0 mm 2 mps 752 mmHg 46%
    16:00 -2°C° 0 mm 2 mps 752 mmHg 48%
    17:00 -3°C° 0 mm 2 mps 753 mmHg 50%
    18:00 -5°C° 0 mm 3 mps 753 mmHg 52%
    19:00 -5°C° 0 mm 3 mps 753 mmHg 53%
    20:00 -5°C° 0 mm 3 mps 753 mmHg 54%
    21:00 -5°C° 0 mm 3 mps 754 mmHg 54%
    22:00 -5°C° 0 mm 3 mps 754 mmHg 55%
    23:00 -4°C° 0 mm 2 mps 755 mmHg 55%

    20 November, Tuesday

    Time Temperature Precipitation Wind Pressure Humidity
    00:00 -4°C° 0 mm 2 mps 755 mmHg 56%
    01:00 -4°C° 0 mm 2 mps 755 mmHg 56%
    02:00 -4°C° 0 mm 2 mps 755 mmHg 56%
    03:00 -4°C° 0 mm 2 mps 755 mmHg 56%
    04:00 -4°C° 0 mm 2 mps 755 mmHg 56%
    05:00 -4°C° 0 mm 2 mps 755 mmHg 56%
    06:00 -5°C° 0 mm 3 mps 755 mmHg 56%
    07:00 -5°C° 0 mm 3 mps 755 mmHg 55%
    08:00 -5°C° 0 mm 3 mps 755 mmHg 54%
    09:00 -5°C° 0 mm 3 mps 755 mmHg 54%
    10:00 -5°C° 0 mm 3 mps 755 mmHg 51%
    11:00 -4°C° 0 mm 3 mps 755 mmHg 49%
    12:00 -2°C° 0 mm 3 mps 755 mmHg 46%
    13:00 -2°C° 0 mm 3 mps 755 mmHg 47%
    14:00 -2°C° 0 mm 2 mps 755 mmHg 47%
    15:00 -2°C° 0 mm 2 mps 754 mmHg 47%
    16:00 -3°C° 0 mm 2 mps 754 mmHg 49%
    17:00 -3°C° 0 mm 2 mps 754 mmHg 50%
    18:00 -4°C° 0 mm 2 mps 754 mmHg 51%
    19:00 -4°C° 0 mm 2 mps 754 mmHg 51%
    20:00 -4°C° 0 mm 2 mps 754 mmHg 51%
    21:00 -4°C° 0 mm 2 mps 753 mmHg 50%
    22:00 -4°C° 0 mm 2 mps 753 mmHg 50%
    23:00 -4°C° 0 mm 2 mps 753 mmHg 49%

    21 November, Wednesday

    Time Temperature Precipitation Wind Pressure Humidity
    00:00 -4°C° 0 mm 2 mps 753 mmHg 49%
    01:00 -4°C° 0 mm 2 mps 753 mmHg 48%
    02:00 -4°C° 0 mm 2 mps 753 mmHg 48%
    03:00 -4°C° 0 mm 2 mps 752 mmHg 47%
    04:00 -5°C° 0 mm 2 mps 752 mmHg 47%
    05:00 -5°C° 0 mm 2 mps 752 mmHg 46%
    06:00 -5°C° 0 mm 2 mps 752 mmHg 45%
    07:00 -5°C° 0 mm 2 mps 751 mmHg 44%
    08:00 -5°C° 0 mm 2 mps 751 mmHg 43%
    09:00 -5°C° 0 mm 2 mps 751 mmHg 42%
    10:00 -5°C° 0 mm 3 mps 751 mmHg 40%
    11:00 -4°C° 0 mm 3 mps 751 mmHg 38%
    12:00 -2°C° 0 mm 3 mps 750 mmHg 36%
    13:00 -2°C° 0 mm 3 mps 750 mmHg 37%
    14:00 -2°C° 0 mm 3 mps 749 mmHg 37%
    15:00 -2°C° 0 mm 3 mps 749 mmHg 38%
    16:00 -4°C° 0 mm 3 mps 749 mmHg 40%
    17:00 -4°C° 0 mm 3 mps 748 mmHg 41%
    18:00 -5°C° 0 mm 3 mps 748 mmHg 43%
    19:00 -5°C° 0 mm 3 mps 748 mmHg 44%
    20:00 -5°C° 0 mm 3 mps 748 mmHg 46%
    21:00 -5°C° 0 mm 3 mps 747 mmHg 48%
    22:00 -5°C° 0 mm 4 mps 747 mmHg 51%
    23:00 -5°C° 0 mm 4 mps 747 mmHg 55%
    Show more